Terminal Aerodrome Forecast
Issued by NWS Tiyan, Guam

Home | Current Version | Previous Version | Text Only | Print | Product List | Glossary On
Versions: 1 2 3 4 5 6 7 8 9 10 11 12 13 14 15 16 17 18 19 20 21 22 23 24
000
FTPQ31 PGUM 201100
TAFPQ
TAF
PGUM 201120Z 2012/2118 11009KT P6SM VCSH FEW015 SCT025
     FM202200 11015KT P6SM SCT020 SCT040 BKN150
     FM210800 10009KT P6SM SCT020 SCT040 SCT150=

USA.gov is the U.S. government's official web portal to all federal, state and local government web resources and services.